Baku, Azerbaijan

7:08 AM +04 on August 22, 2018 (GMT +0400)
Bina

Weather History for UBBB - February, 2018

Change the Weather History Date:

Friday, February 23, 2018

  Actual Average Record
Temperature  
Mean Temperature 45 °F -  
Max Temperature 48 °F - - ()
Min Temperature 42 °F - - ()
Degree Days  
Heating Degree Days 20    
Moisture  
Dew Point 41 °F    
Average Humidity 87    
Maximum Humidity 93    
Minimum Humidity 63    
Precipitation  
Precipitation 0.00 in - - ()
Sea Level Pressure  
Sea Level Pressure 30.03 in    
Wind  
Wind Speed 6 mph ()    
Max Wind Speed 9 mph    
Max Gust Speed -    
Visibility 6.2 miles    
Events      
T = Trace of Precipitation, MM = Missing Value Source: Averaged Metar Reports

Daily Weather History Graph

Daily Weather History Graph

Search for Another Location

Airport or City:

Astronomy

Feb. 23, 2018 Rise Set
Actual Time 7:22 AM +04 6:24 PM +04
Civil Twilight 6:55 AM +04 6:51 PM +04
Nautical Twilight 6:23 AM +04 7:23 PM +04
Astronomical Twilight 5:52 AM +04 7:54 PM +04
Moon 11:44 AM +04 (2/23) 1:09 AM +04 (2/23)
Length of Visible Light 11h 56m
Length of Day
11h 01m
Waxing Crescent, 50% of the Moon is Illuminated
Feb 23
Waxing Crescent
Feb 23
First Quarter
Mar 2
Full
Mar 9
Last Quarter
Mar 17
New

Hourly Weather History & Observations

Time (+04) Temp. Windchill Dew Point Humidity Pressure Visibility Wind Dir Wind Speed Gust Speed Precip Events Conditions
12:00 AM 42.8 °F 38.6 °F 41.0 °F 93% 30.04 in 6.2 mi NW 6.9 mph - N/A   Overcast
12:30 AM 42.8 °F 38.6 °F 41.0 °F 93% 30.04 in 6.2 mi NNW 6.9 mph - N/A   Overcast
1:00 AM 42 °F - 40 °F 91% 30.05 in 6 mi WNW 6.7 mph - -   Overcast
1:00 AM 42.8 °F 38.6 °F 41.0 °F 93% 30.04 in 6.2 mi NW 6.9 mph - N/A   Overcast
1:30 AM 42.8 °F 38.6 °F 41.0 °F 93% 30.04 in 6.2 mi NW 6.9 mph - N/A   Overcast
2:00 AM 42.8 °F 38.0 °F 41.0 °F 93% 30.04 in 6.2 mi NW 8.1 mph - N/A   Overcast
2:30 AM 42.8 °F 38.6 °F 41.0 °F 93% 30.04 in 6.2 mi NW 6.9 mph - N/A   Overcast
3:00 AM 42.8 °F 39.3 °F 41.0 °F 93% 30.04 in 6.2 mi NW 5.8 mph - N/A   Overcast
3:30 AM 42.8 °F 38.6 °F 41.0 °F 93% 30.04 in 6.2 mi WNW 6.9 mph - N/A   Overcast
4:00 AM 42 °F - 40 °F 88% 30.04 in 6 mi WNW 4.5 mph - -   Overcast
4:00 AM 42.8 °F 38.0 °F 41.0 °F 93% 30.04 in 6.2 mi NW 8.1 mph - N/A   Overcast
4:30 AM 42.8 °F 39.3 °F 41.0 °F 93% 30.04 in 6.2 mi NW 5.8 mph - N/A   Overcast
5:00 AM 42.8 °F 39.3 °F 41.0 °F 93% 30.04 in 6.2 mi NNW 5.8 mph - N/A   Overcast
5:30 AM 42.8 °F 40.1 °F 41.0 °F 93% 30.04 in 6.2 mi NW 4.6 mph - N/A   Overcast
6:00 AM 42.8 °F 39.3 °F 41.0 °F 93% 30.04 in 6.2 mi NNW 5.8 mph - N/A   Overcast
6:30 AM 42.8 °F 39.3 °F 41.0 °F 93% 30.04 in 6.2 mi NNW 5.8 mph - N/A   Overcast
7:00 AM 42 °F - 40 °F 88% 30.04 in 6 mi NW 4.5 mph - -   Overcast
7:00 AM 42.8 °F 40.1 °F 41.0 °F 93% 30.04 in 6.2 mi NNW 4.6 mph - N/A   Overcast
7:30 AM 42.8 °F 40.1 °F 41.0 °F 93% 30.04 in 6.2 mi NNW 4.6 mph - N/A   Overcast
8:00 AM 42.8 °F 40.1 °F 41.0 °F 93% 30.04 in 6.2 mi NNW 4.6 mph - N/A   Overcast
8:30 AM 42.8 °F 38.6 °F 41.0 °F 93% 30.06 in 6.2 mi NNW 6.9 mph - N/A   Overcast
9:00 AM 44.6 °F 41.4 °F 41.0 °F 87% 30.06 in 6.2 mi North 5.8 mph - N/A   Overcast
9:30 AM 44.6 °F 41.4 °F 41.0 °F 87% 30.06 in 6.2 mi North 5.8 mph - N/A   Overcast
10:00 AM 44 °F - 42 °F 88% 30.06 in 6 mi NNW 2.2 mph - -   Overcast
10:00 AM 44.6 °F 42.2 °F 41.0 °F 87% 30.06 in 6.2 mi North 4.6 mph - N/A   Overcast
10:30 AM 46.4 °F 44.3 °F 41.0 °F 81% 30.06 in 6.2 mi North 4.6 mph - N/A   Overcast
11:00 AM 46.4 °F 42.9 °F 37.4 °F 71% 30.06 in 6.2 mi NNE 6.9 mph - N/A   Overcast
11:30 AM 46.4 °F 43.5 °F 39.2 °F 76% 30.06 in 6.2 mi North 5.8 mph - N/A   Overcast
12:00 PM 46.4 °F 42.9 °F 37.4 °F 71% 30.06 in 6.2 mi NNE 6.9 mph - N/A   Overcast
12:30 PM 46.4 °F 43.5 °F 39.2 °F 76% 30.04 in 6.2 mi NNE 5.8 mph - N/A   Overcast
1:00 PM 47 °F - 38 °F 63% 30.04 in 6 mi North 2.2 mph - -   Overcast
1:00 PM 48.2 °F - 39.2 °F 71% 30.04 in - North 5.8 mph - N/A   Clear
1:30 PM 48.2 °F - 39.2 °F 71% 30.04 in - North 3.5 mph - N/A   Clear
2:00 PM 48.2 °F - 39.2 °F 71% 30.01 in - NNE 3.5 mph - N/A   Clear
2:30 PM 48.2 °F - 41.0 °F 76% 30.01 in 6.2 mi East 3.5 mph - N/A   Overcast
3:00 PM 48.2 °F - 42.8 °F 82% 30.01 in 6.2 mi ENE 4.6 mph - N/A   Overcast
3:30 PM 48.2 °F - 42.8 °F 82% 30.01 in 6.2 mi NE 4.6 mph - N/A   Overcast
4:00 PM 48 °F - 42 °F 75% 30.01 in 6 mi NNE 4.5 mph - -   Overcast
4:00 PM 48.2 °F - 44.6 °F 87% 30.01 in 6.2 mi East 4.6 mph - N/A   Overcast
4:30 PM 48.2 °F - 44.6 °F 87% 30.01 in 6.2 mi ESE 6.9 mph - N/A   Overcast
5:00 PM 48.2 °F - 44.6 °F 87% 30.01 in 6.2 mi SSE 8.1 mph - N/A   Overcast
5:30 PM 46.4 °F 42.4 °F 42.8 °F 87% 30.01 in 6.2 mi South 8.1 mph - N/A   Mostly Cloudy
6:00 PM 46.4 °F 42.9 °F 42.8 °F 87% 29.98 in 6.2 mi South 6.9 mph - N/A   Mostly Cloudy
6:30 PM 46.4 °F 42.4 °F 42.8 °F 87% 29.98 in 6.2 mi South 8.1 mph - N/A   Overcast
7:00 PM 45 °F - 42 °F 86% 29.99 in 6 mi SE 6.7 mph - -   Overcast
7:00 PM 46.4 °F 42.9 °F 42.8 °F 87% 29.98 in 6.2 mi South 6.9 mph - N/A   Overcast
7:30 PM 46.4 °F 43.5 °F 42.8 °F 87% 30.01 in 6.2 mi South 5.8 mph - N/A   Overcast
8:00 PM 46.4 °F 42.9 °F 42.8 °F 87% 30.01 in 6.2 mi SSE 6.9 mph - N/A   Overcast
8:30 PM 46.4 °F 42.9 °F 42.8 °F 87% 30.01 in 6.2 mi South 6.9 mph - N/A   Overcast
9:00 PM 44.6 °F 40.2 °F 42.8 °F 93% 30.01 in 6.2 mi SSE 8.1 mph - N/A   Overcast
9:30 PM 44.6 °F 40.7 °F 42.8 °F 93% 30.01 in 6.2 mi South 6.9 mph - N/A   Overcast
10:00 PM 45 °F - 42 °F 86% 30.00 in 6 mi ESE 6.7 mph - -   Overcast
10:00 PM 44.6 °F 40.2 °F 42.8 °F 93% 30.01 in 6.2 mi SSE 8.1 mph - N/A   Overcast
10:30 PM 44.6 °F 39.7 °F 41.0 °F 87% 29.98 in 6.2 mi SE 9.2 mph - N/A   Overcast
11:00 PM 44.6 °F 40.2 °F 42.8 °F 93% 29.98 in 6.2 mi SE 8.1 mph - N/A   Overcast
11:30 PM 44.6 °F 40.2 °F 42.8 °F 93% 29.98 in 6.2 mi SE 8.1 mph - N/A   Overcast